This is the latest recevied weather packets stored in our database for station/object N2XP-3. If no packets are shown the sender has not sent any weather packets the latest 10 day(s).
| Time | Temp. | Humidity | Pressure | Rain* | Wind** | Luminosity | Snow |
|---|---|---|---|---|---|---|---|
| 1777927238 | 21.67° C | 39% | 1006.8 hPa | 0 mm | 1.79 m/s, 208° | - | - |
| 1777927083 | 21.67° C | 39% | 1006.9 hPa | 0 mm | 2.24 m/s, 328° | - | - |
| 1777926933 | 21.67° C | 39% | 1006.9 hPa | 0 mm | 2.24 m/s, 328° | - | - |
| 1777926676 | 21.67° C | 39% | 1006.8 hPa | 0 mm | 2.68 m/s, 284° | - | - |
| 1777926634 | 21.67° C | 39% | 1006.8 hPa | 0 mm | 2.68 m/s, 284° | - | - |
| 1777926370 | 21.67° C | 40% | 1006.9 hPa | 0 mm | 1.34 m/s, 322° | - | - |
| 1777926332 | 21.67° C | 40% | 1006.9 hPa | 0 mm | 1.34 m/s, 322° | - | - |
| 1777926027 | 21.67° C | 39% | 1007 hPa | 0 mm | 1.34 m/s, 353° | - | - |
| 1777925428 | 22.22° C | 38% | 1007.1 hPa | 0 mm | 2.68 m/s, 250° | - | - |
| 1777925124 | 22.22° C | 38% | 1007.1 hPa | 0 mm | 3.13 m/s, 195° | - | - |
| 1777924823 | 22.22° C | 38% | 1007.1 hPa | 0 mm | 3.58 m/s, 290° | - | - |
| 1777924524 | 22.22° C | 37% | 1007.2 hPa | 0 mm | 1.79 m/s, 270° | - | - |
| 1777924255 | 22.22° C | 37% | 1007.2 hPa | 0 mm | 2.24 m/s, 219° | - | - |
| 1777924221 | 22.22° C | 37% | 1007.2 hPa | 0 mm | 2.24 m/s, 219° | - | - |
| 1777923365 | 22.78° C | 36% | 1007.2 hPa | 0 mm | 2.68 m/s, 224° | - | - |
| 1777923319 | 22.78° C | 36% | 1007.2 hPa | 0 mm | 2.68 m/s, 224° | - | - |
| 1777922755 | 22.78° C | 36% | 1007.2 hPa | 0 mm | 2.24 m/s, 257° | - | - |
| 1777922720 | 22.78° C | 36% | 1007.2 hPa | 0 mm | 2.24 m/s, 257° | - | - |
| 1777922412 | 22.78° C | 36% | 1007.3 hPa | 0 mm | 0 m/s | - | - |
| 1777920599 | 22.78° C | 36% | 1007.6 hPa | 0 mm | 2.68 m/s, 228° | - | - |
| 1777920300 | 23.33° C | 36% | 1007.7 hPa | 0 mm | 2.68 m/s, 335° | - | - |
| 1777919394 | 22.78° C | 36% | 1007.8 hPa | 0 mm | 1.34 m/s, 315° | - | - |
| 1777919094 | 22.78° C | 37% | 1007.8 hPa | 0 mm | 1.79 m/s, 280° | - | - |
| 1777918792 | 23.33° C | 37% | 1008 hPa | 0 mm | 4.92 m/s, 262° | - | - |
| 1777918529 | 22.78° C | 37% | 1007.9 hPa | 0 mm | 1.79 m/s, 255° | - | - |
* Rain latest hour (hover to see other rain measurements)
** Current wind speed in m/s (hover to see current wind gust speed)